Radiation Dose at Monitoring Post of Fukushima Daini Nuclear Power Station
Date,Time,MP-1(microSv/h),MP-2(microSv/h),MP-3(microSv/h),MP-4(microSv/h),MP-5(microSv/h),MP-6(microSv/h),MP-7(microSv/h),Wind Direction,Wind Velocity(m/s),Rain
2022/11/30,00:00,0.158,0.142,0.219,0.215,0.215,0.128,0.084,south-southwest,2.6,Yes
2022/11/30,00:10,0.156,0.141,0.217,0.214,0.217,0.127,0.085,north,1.5,Yes
2022/11/30,00:20,0.157,0.142,0.217,0.215,0.213,0.127,0.084,west,3.0,Yes
2022/11/30,00:30,0.155,0.142,0.215,0.211,0.215,0.125,0.084,west-northwest,2.7,Yes
2022/11/30,00:40,0.157,0.141,0.215,0.211,0.213,0.126,0.084,west-northwest,2.9,Yes
2022/11/30,00:50,0.156,0.142,0.214,0.211,0.215,0.126,0.084,west-northwest,3.1,Yes
2022/11/30,01:00,0.158,0.142,0.215,0.213,0.215,0.126,0.085,northwest,3.5,Yes
2022/11/30,01:10,0.156,0.143,0.216,0.211,0.216,0.126,0.085,north-northwest,5.7,Yes
2022/11/30,01:20,0.157,0.142,0.215,0.214,0.215,0.125,0.084,northwest,7.4,Yes
2022/11/30,01:30,0.155,0.141,0.216,0.210,0.215,0.124,0.083,northwest,7.5,No
2022/11/30,01:40,0.155,0.140,0.215,0.211,0.214,0.123,0.081,northwest,8.1,No
2022/11/30,01:50,0.154,0.140,0.214,0.210,0.215,0.122,0.081,northwest,6.5,No
2022/11/30,02:00,0.153,0.138,0.212,0.211,0.213,0.120,0.080,northwest,5.4,No
2022/11/30,02:10,0.153,0.138,0.213,0.208,0.214,0.120,0.079,northwest,4.4,No
2022/11/30,02:20,0.151,0.137,0.211,0.209,0.212,0.120,0.078,northwest,3.2,No
2022/11/30,02:30,0.150,0.137,0.211,0.206,0.211,0.120,0.078,west-northwest,3.2,No
2022/11/30,02:40,0.151,0.136,0.212,0.208,0.209,0.119,0.077,west-northwest,3.9,No
2022/11/30,02:50,0.150,0.136,0.210,0.207,0.211,0.119,0.078,-,CALM,No
2022/11/30,03:00,0.151,0.137,0.211,0.207,0.211,0.119,0.077,-,CALM,No
2022/11/30,03:10,0.150,0.135,0.210,0.207,0.210,0.119,0.077,south,0.9,No
2022/11/30,03:20,0.149,0.135,0.211,0.207,0.212,0.119,0.076,east-southeast,1.5,No
2022/11/30,03:30,0.150,0.135,0.210,0.207,0.209,0.118,0.076,southeast,1.3,No
2022/11/30,03:40,0.150,0.135,0.210,0.207,0.210,0.118,0.076,south-southeast,2.5,No
2022/11/30,03:50,0.150,0.135,0.210,0.206,0.209,0.118,0.076,southeast,2.3,No
2022/11/30,04:00,0.150,0.134,0.211,0.206,0.211,0.117,0.076,southeast,1.5,No
2022/11/30,04:10,0.149,0.135,0.210,0.207,0.209,0.118,0.077,-,CALM,No
2022/11/30,04:20,0.150,0.136,0.210,0.206,0.210,0.118,0.076,-,CALM,No
2022/11/30,04:30,0.149,0.136,0.211,0.207,0.209,0.119,0.076,-,CALM,No
2022/11/30,04:40,0.150,0.135,0.211,0.205,0.210,0.119,0.076,north-northeast,0.7,No
2022/11/30,04:50,0.149,0.135,0.211,0.207,0.210,0.119,0.076,east,1.5,No
2022/11/30,05:00,0.148,0.135,0.210,0.205,0.211,0.118,0.077,east,2.3,No
2022/11/30,05:10,0.150,0.135,0.211,0.208,0.210,0.119,0.076,east-southeast,1.4,No
2022/11/30,05:20,0.150,0.135,0.210,0.206,0.211,0.118,0.076,east-southeast,0.9,No
2022/11/30,05:30,0.149,0.135,0.210,0.207,0.209,0.118,0.076,east,1.7,No
2022/11/30,05:40,0.150,0.135,0.211,0.206,0.210,0.118,0.076,east-southeast,1.6,No
2022/11/30,05:50,0.149,0.134,0.210,0.207,0.210,0.119,0.077,east-southeast,2.0,No
2022/11/30,06:00,0.149,0.135,0.211,0.207,0.211,0.118,0.076,east-southeast,2.1,No
2022/11/30,06:10,0.148,0.135,0.210,0.208,0.209,0.118,0.076,east,1.3,No
2022/11/30,06:20,0.150,0.135,0.212,0.207,0.210,0.118,0.076,east-northeast,0.9,No
2022/11/30,06:30,0.150,0.134,0.210,0.207,0.210,0.119,0.076,east-northeast,1.2,No
2022/11/30,06:40,0.150,0.136,0.211,0.206,0.211,0.119,0.076,east-northeast,0.8,No
2022/11/30,06:50,0.149,0.136,0.212,0.207,0.210,0.118,0.076,north-northwest,0.9,No
2022/11/30,07:00,0.150,0.134,0.211,0.208,0.211,0.118,0.076,northwest,1.1,No
2022/11/30,07:10,0.149,0.135,0.211,0.207,0.210,0.119,0.076,northwest,2.2,No
2022/11/30,07:20,0.150,0.136,0.210,0.208,0.211,0.119,0.076,northwest,2.0,No
2022/11/30,07:30,0.149,0.135,0.211,0.207,0.210,0.119,0.075,northwest,2.5,No
2022/11/30,07:40,0.150,0.135,0.210,0.208,0.210,0.118,0.076,north-northwest,3.8,No
2022/11/30,07:50,0.149,0.135,0.211,0.207,0.210,0.119,0.077,northwest,3.9,No
2022/11/30,08:00,0.149,0.135,0.210,0.208,0.211,0.118,0.076,north-northwest,4.4,No
2022/11/30,08:10,0.149,0.136,0.211,0.206,0.209,0.119,0.077,north-northwest,4.4,No
2022/11/30,08:20,0.150,0.135,0.210,0.207,0.211,0.119,0.077,north-northwest,4.9,No
2022/11/30,08:30,0.149,0.136,0.212,0.207,0.210,0.119,0.076,north-northwest,5.4,No
2022/11/30,08:40,0.150,0.135,0.211,0.208,0.210,0.119,0.077,north-northwest,6.3,No
2022/11/30,08:50,0.149,0.136,0.212,0.207,0.209,0.118,0.076,north-northwest,5.8,No
2022/11/30,09:00,0.150,0.135,0.212,0.209,0.211,0.118,0.076,north-northwest,6.2,No
2022/11/30,09:10,0.150,0.137,0.212,0.206,0.210,0.119,0.076,north-northwest,6.6,No
2022/11/30,09:20,0.150,0.135,0.212,0.208,0.211,0.119,0.076,north-northwest,6.5,No
2022/11/30,09:30,0.150,0.136,0.211,0.206,0.210,0.119,0.077,north-northwest,5.6,No
2022/11/30,09:40,0.152,0.136,0.213,0.209,0.212,0.119,0.076,north-northwest,4.1,No
2022/11/30,09:50,0.149,0.136,0.211,0.207,0.211,0.118,0.077,north-northwest,4.1,No
2022/11/30,10:00,0.151,0.136,0.211,0.208,0.211,0.119,0.076,north,2.7,Yes
2022/11/30,10:10,0.150,0.137,0.211,0.206,0.212,0.119,0.077,north,2.5,Yes
2022/11/30,10:20,0.152,0.138,0.215,0.209,0.213,0.122,0.078,north,2.9,Yes
2022/11/30,10:30,0.152,0.138,0.213,0.208,0.214,0.121,0.080,north,2.0,Yes
2022/11/30,10:40,0.152,0.137,0.215,0.210,0.212,0.122,0.079,-,CALM,No
2022/11/30,10:50,0.152,0.139,0.213,0.209,0.213,0.121,0.079,-,CALM,No
2022/11/30,11:00,0.152,0.137,0.214,0.209,0.212,0.122,0.078,east-northeast,1.1,No
2022/11/30,11:10,0.152,0.138,0.211,0.208,0.214,0.121,0.079,northeast,1.9,No
2022/11/30,11:20,0.151,0.137,0.214,0.208,0.210,0.121,0.078,north,2.5,No
2022/11/30,11:30,0.151,0.137,0.212,0.208,0.211,0.120,0.078,north-northeast,1.6,No
2022/11/30,11:40,0.150,0.136,0.213,0.209,0.213,0.120,0.078,north,2.7,No
2022/11/30,11:50,0.151,0.137,0.213,0.209,0.210,0.120,0.077,north,1.7,No
2022/11/30,12:00,0.151,0.137,0.213,0.208,0.211,0.119,0.078,north-northwest,1.6,No
2022/11/30,12:10,0.152,0.137,0.213,0.209,0.210,0.120,0.077,northwest,4.1,No
2022/11/30,12:20,0.150,0.136,0.211,0.208,0.212,0.119,0.077,northwest,3.9,No
2022/11/30,12:30,0.152,0.137,0.213,0.210,0.210,0.120,0.077,northwest,5.1,No
2022/11/30,12:40,0.150,0.136,0.211,0.208,0.212,0.120,0.077,west-northwest,3.7,No
2022/11/30,12:50,0.152,0.136,0.214,0.209,0.212,0.120,0.078,west-northwest,5.4,No
2022/11/30,13:00,0.151,0.136,0.212,0.208,0.212,0.120,0.077,northwest,5.9,No
2022/11/30,13:10,0.151,0.137,0.213,0.210,0.212,0.119,0.078,west-northwest,5.3,No
2022/11/30,13:20,0.150,0.136,0.212,0.209,0.210,0.119,0.077,west-northwest,4.2,No
2022/11/30,13:30,0.151,0.137,0.213,0.209,0.213,0.120,0.077,west-northwest,5.3,No
2022/11/30,13:40,0.151,0.137,0.213,0.208,0.210,0.120,0.077,west-northwest,4.9,No
2022/11/30,13:50,0.152,0.137,0.213,0.210,0.212,0.120,0.076,west-northwest,6.2,No
2022/11/30,14:00,0.150,0.136,0.213,0.209,0.210,0.120,0.077,west-northwest,7.4,No
2022/11/30,14:10,0.152,0.137,0.214,0.209,0.213,0.119,0.077,west,6.4,No
2022/11/30,14:20,0.150,0.136,0.214,0.209,0.211,0.121,0.077,west,4.9,No
2022/11/30,14:30,0.152,0.138,0.213,0.210,0.213,0.119,0.077,west-northwest,4.0,No
2022/11/30,14:40,0.151,0.137,0.213,0.209,0.210,0.120,0.077,west-northwest,1.4,No
2022/11/30,14:50,0.151,0.137,0.213,0.209,0.213,0.120,0.077,northwest,1.8,No
2022/11/30,15:00,0.151,0.136,0.213,0.209,0.211,0.120,0.077,east,1.1,No
2022/11/30,15:10,0.151,0.137,0.212,0.209,0.212,0.120,0.077,southeast,0.6,No
2022/11/30,15:20,0.151,0.135,0.215,0.208,0.211,0.120,0.076,-,CALM,No
2022/11/30,15:30,0.152,0.136,0.212,0.209,0.212,0.120,0.077,north-northwest,0.8,No
2022/11/30,15:40,0.151,0.136,0.213,0.209,0.210,0.119,0.076,northwest,1.3,No
2022/11/30,15:50,0.152,0.136,0.212,0.210,0.212,0.120,0.076,west-northwest,1.9,No
2022/11/30,16:00,0.151,0.136,0.213,0.209,0.211,0.120,0.076,west-southwest,4.7,No
2022/11/30,16:10,0.151,0.136,0.213,0.209,0.212,0.119,0.077,west-northwest,4.1,No
2022/11/30,16:20,0.150,0.137,0.213,0.209,0.211,0.119,0.076,west-northwest,4.5,No
2022/11/30,16:30,0.151,0.136,0.214,0.208,0.212,0.120,0.077,west-northwest,7.0,No
2022/11/30,16:40,0.151,0.137,0.213,0.209,0.212,0.119,0.077,west-northwest,8.1,No
2022/11/30,16:50,0.152,0.135,0.213,0.208,0.212,0.119,0.077,west-northwest,10.1,No
2022/11/30,17:00,0.150,0.136,0.213,0.210,0.210,0.120,0.077,west-northwest,12.3,No
2022/11/30,17:10,0.152,0.137,0.213,0.208,0.213,0.120,0.077,west-northwest,10.7,No
2022/11/30,17:20,0.151,0.137,0.214,0.210,0.211,0.120,0.076,northwest,9.2,No
2022/11/30,17:30,0.151,0.137,0.213,0.208,0.213,0.120,0.077,northwest,8.3,No
2022/11/30,17:40,0.151,0.136,0.214,0.209,0.211,0.120,0.077,northwest,10.9,No
2022/11/30,17:50,0.152,0.136,0.215,0.209,0.213,0.120,0.076,west-northwest,8.6,No
2022/11/30,18:00,0.151,0.138,0.213,0.209,0.213,0.120,0.077,northwest,9.5,No
2022/11/30,18:10,0.152,0.138,0.215,0.209,0.212,0.119,0.076,northwest,11.5,No
2022/11/30,18:20,0.152,0.138,0.215,0.211,0.214,0.120,0.077,northwest,11.2,No
2022/11/30,18:30,0.153,0.137,0.214,0.209,0.212,0.120,0.078,northwest,8.2,No
2022/11/30,18:40,0.151,0.136,0.214,0.210,0.214,0.120,0.077,north-northwest,6.6,No
2022/11/30,18:50,0.152,0.137,0.214,0.209,0.212,0.120,0.078,north-northwest,5.1,No
2022/11/30,19:00,0.152,0.136,0.214,0.210,0.213,0.120,0.077,northwest,8.7,No
2022/11/30,19:10,0.153,0.138,0.215,0.210,0.214,0.120,0.076,northwest,11.2,No
2022/11/30,19:20,0.152,0.137,0.215,0.209,0.212,0.120,0.078,northwest,9.3,No
2022/11/30,19:30,0.153,0.137,0.214,0.211,0.214,0.120,0.078,northwest,10.1,No
2022/11/30,19:40,0.153,0.138,0.216,0.211,0.212,0.121,0.077,northwest,8.1,No
2022/11/30,19:50,0.153,0.138,0.215,0.210,0.213,0.122,0.078,northwest,7.0,No
2022/11/30,20:00,0.154,0.137,0.214,0.211,0.214,0.122,0.078,north-northwest,7.0,No
2022/11/30,20:10,0.153,0.138,0.215,0.211,0.213,0.122,0.077,north-northwest,6.2,No
2022/11/30,20:20,0.153,0.139,0.215,0.211,0.213,0.121,0.078,north-northwest,6.3,No
2022/11/30,20:30,0.154,0.138,0.214,0.212,0.213,0.121,0.078,north-northwest,5.7,No
2022/11/30,20:40,0.153,0.138,0.216,0.211,0.212,0.120,0.077,north-northwest,4.4,No
2022/11/30,20:50,0.154,0.138,0.215,0.210,0.214,0.122,0.077,north,4.3,No
2022/11/30,21:00,0.154,0.138,0.215,0.211,0.213,0.121,0.078,north,5.4,No
2022/11/30,21:10,0.153,0.138,0.215,0.211,0.213,0.121,0.078,north,6.6,No
2022/11/30,21:20,0.154,0.139,0.215,0.211,0.213,0.121,0.077,north,6.0,No
2022/11/30,21:30,0.155,0.138,0.216,0.211,0.213,0.121,0.078,north,5.3,No
2022/11/30,21:40,0.153,0.138,0.215,0.213,0.213,0.122,0.077,north-northwest,6.1,No
2022/11/30,21:50,0.153,0.139,0.216,0.212,0.213,0.121,0.077,north,6.5,No
2022/11/30,22:00,0.153,0.138,0.215,0.212,0.213,0.121,0.078,north-northwest,4.6,No
2022/11/30,22:10,0.154,0.139,0.215,0.211,0.213,0.121,0.077,north-northwest,6.1,No
2022/11/30,22:20,0.154,0.138,0.216,0.211,0.212,0.122,0.077,north-northwest,5.9,No
2022/11/30,22:30,0.154,0.138,0.215,0.212,0.212,0.121,0.078,north-northwest,7.6,No
2022/11/30,22:40,0.155,0.138,0.216,0.210,0.214,0.122,0.078,north-northwest,6.6,No
2022/11/30,22:50,0.154,0.139,0.216,0.211,0.213,0.122,0.077,north-northwest,5.2,No
2022/11/30,23:00,0.153,0.138,0.217,0.212,0.214,0.123,0.078,north-northwest,3.6,No
2022/11/30,23:10,0.153,0.139,0.217,0.212,0.214,0.122,0.078,north,5.2,No
2022/11/30,23:20,0.155,0.138,0.216,0.211,0.213,0.122,0.078,north-northwest,4.8,No
2022/11/30,23:30,0.154,0.137,0.215,0.212,0.213,0.122,0.078,north,6.5,No
2022/11/30,23:40,0.153,0.138,0.215,0.211,0.214,0.122,0.078,north-northwest,7.7,No
2022/11/30,23:50,0.154,0.138,0.216,0.212,0.212,0.122,0.077,north-northwest,7.7,No
